FW9150 Weather Reports


time (UTC)temp
F
wind
direction
speed
knots
gust
knots
rain 1hr
in
rain 24hr
in
rain mn
in
humidity
%
barometer
mb
20260507065912 49 45 0.0 0.0 0.00 0.00 0.00 93 1025.0
20260507065011 49 45 0.0 0.0 0.00 0.00 0.00 93 1025.1
20260507064011 49 45 0.0 0.0 0.00 0.00 0.00 93 1025.1
20260507063012 50 45 0.0 0.0 0.00 0.00 0.00 93 1024.9
20260507062013 50 45 0.0 0.0 0.00 0.00 0.00 93 1024.9
20260507061111 51 45 0.0 0.0 0.00 0.00 0.00 93 1024.9
20260507060112 51 45 0.0 0.0 0.00 0.00 0.00 93 1024.7
20260507055210 51 45 0.0 0.0 0.00 0.00 0.00 93 1024.6
20260507054310 51 45 0.0 0.0 0.00 0.00 0.00 93 1024.6
20260507053312 51 45 0.0 0.0 0.00 0.00 0.00 93 1024.7
20260507052411 51 45 0.0 0.0 0.00 0.00 0.00 93 1024.6
20260507051411 52 45 0.0 0.0 0.00 0.00 0.00 93 1024.6
20260507050411 52 45 0.0 0.0 0.00 0.00 0.00 93 1024.7
20260507045412 52 45 0.0 0.0 0.00 0.00 0.00 92 1024.8
20260507044511 52 45 0.0 0.0 0.00 0.00 0.00 92 1024.7
20260507043511 52 45 0.0 0.0 0.00 0.00 0.00 92 1024.7
20260507042511 52 45 0.0 0.0 0.00 0.00 0.00 91 1024.6
20260507041511 52 45 0.0 0.0 0.00 0.00 0.00 91 1024.7
20260507040510 52 45 0.0 0.0 0.00 0.00 0.00 91 1024.6
20260507035513 53 45 0.0 0.0 0.00 0.00 0.00 90 1024.5
20260507032611 54 45 0.0 0.0 0.00 0.00 0.00 89 1024.2
20260507031610 54 45 0.0 0.0 0.00 0.00 0.00 88 1024.3
20260507025711 55 45 0.0 0.0 0.00 0.00 0.00 86 1024.2
20260507024810 56 45 0.0 0.0 0.00 0.00 0.00 86 1024.1
20260507021910 57 45 0.0 0.0 0.00 0.00 0.00 82 1023.9
20260507020912 58 45 0.0 0.0 0.00 0.00 0.00 82 1023.8
20260507015911 58 45 0.0 0.0 0.00 0.00 0.00 81 1023.8
20260507014910 59 45 0.0 0.0 0.00 0.00 0.00 80 1023.8
20260507013911 59 113 0.0 0.0 0.00 0.00 0.00 78 1023.8
20260507012910 60 135 0.0 0.0 0.00 0.00 0.00 77 1023.8
20260507011911 60 135 0.0 0.0 0.00 0.00 0.00 76 1023.7
20260507010912 60 135 0.0 0.0 0.00 0.00 0.00 75 1023.7
20260507010011 61 157 0.0 0.0 0.00 0.00 0.00 75 1023.7
20260507005013 61 157 0.0 0.0 0.00 0.00 0.00 73 1023.6
20260507003012 62 45 0.0 0.0 0.00 0.00 0.00 73 1023.6
20260507002912 62 46 0.0 2.6 0.00 0.00 0.00 73 1023.6
20260507001912 62 45 0.0 0.0 0.00 0.00 0.00 72 1023.7
20260507000913 62 66 0.0 2.6 0.00 0.00 0.00 72 1023.6
20260506235912 62 360 0.0 0.0 0.00 0.00 0.00 71 1023.6
20260506235010 62 180 0.0 0.0 0.00 0.00 0.00 71 1023.6
20260506234014 62 358 0.0 0.9 0.00 0.00 0.00 70 1023.6
20260506233011 63 176 0.9 1.7 0.00 0.00 0.00 69 1023.7
20260506232011 63 219 0.0 1.7 0.00 0.00 0.00 68 1023.7
20260506231011 63 208 0.0 1.7 0.00 0.00 0.00 68 1023.8
20260506230010 64 224 0.0 0.9 0.00 0.00 0.00 66 1023.6
20260506225010 65 232 0.0 0.0 0.00 0.00 0.00 65 1023.7
20260506224012 64 82 0.0 0.0 0.00 0.00 0.00 66 1023.8
20260506223012 64 135 0.0 0.9 0.00 0.00 0.00 65 1023.9
20260506221111 64 346 0.0 1.7 0.00 0.00 0.00 64 1023.8
20260506220210 64 142 0.0 1.7 0.00 0.00 0.00 65 1024.0
20260506215213 64 48 0.0 0.9 0.00 0.00 0.00 65 1024.1
20260506214212 64 132 0.0 0.9 0.00 0.00 0.00 63 1024.2
20260506213211 64 359 0.0 0.0 0.00 0.00 0.00 63 1024.3
20260506212211 64 337 0.0 0.0 0.00 0.00 0.00 64 1024.2
20260506211211 64 49 0.0 0.0 0.00 0.00 0.00 64 1024.2
20260506210212 65 189 0.0 0.0 0.00 0.00 0.00 62 1024.2
20260506205311 66 11 0.0 0.9 0.00 0.00 0.00 64 1024.2
20260506204410 66 112 0.0 0.0 0.00 0.00 0.00 63 1024.2
20260506202412 66 337 0.9 2.6 0.00 0.00 0.00 62 1024.1
20260506201411 66 268 0.0 0.0 0.00 0.00 0.00 63 1024.3
20260506200509 66 245 0.0 0.9 0.00 0.00 0.00 61 1024.2
20260506195512 65 180 0.0 0.9 0.00 0.00 0.00 64 1024.2
20260506194511 66 159 1.7 2.6 0.00 0.00 0.00 63 1024.1
20260506193511 66 292 0.0 0.9 0.00 0.00 0.00 62 1024.3
20260506192511 66 5 0.9 3.5 0.00 0.00 0.00 63 1024.2
20260506191510 66 175 0.0 0.9 0.00 0.00 0.00 63 1024.2
20260506190511 66 202 0.0 0.9 0.00 0.00 0.00 64 1024.3
20260506185511 65 293 0.0 0.9 0.00 0.00 0.00 66 1024.2
20260506184527 65 292 0.0 0.9 0.00 0.00 0.00 63 1024.2
20260506183611 66 176 0.9 2.6 0.00 0.00 0.00 63 1024.0
20260506182612 67 118 0.0 2.6 0.00 0.00 0.00 62 1023.9
20260506181612 67 157 0.0 0.9 0.00 0.00 0.00 59 1023.8
20260506180611 68 164 0.9 2.6 0.00 0.00 0.00 61 1023.8
20260506175611 67 130 0.9 1.7 0.00 0.00 0.00 62 1023.6
20260506172810 64 157 0.0 0.0 0.00 0.00 0.00 68 1023.6
20260506171811 63 157 0.9 1.7 0.00 0.00 0.00 70 1023.8
20260506170812 61 157 0.0 0.9 0.00 0.00 0.00 72 1023.8
20260506165811 60 157 0.0 0.9 0.00 0.00 0.00 74 1023.6
20260506164810 58 180 0.0 0.9 0.00 0.00 0.00 77 1023.6
20260506163827 56 180 0.0 0.9 0.00 0.00 0.00 79 1023.6
20260506162811 54 180 0.9 0.9 0.00 0.00 0.00 83 1023.4
20260506161811 52 180 0.9 0.9 0.00 0.00 0.00 88 1023.4
20260506160911 50 180 0.0 0.9 0.00 0.00 0.00 93 1023.4
20260506155912 47 180 0.0 0.9 0.00 0.00 0.00 95 1023.3
20260506154911 45 180 0.9 0.9 0.00 0.00 0.00 95 1023.3
20260506153911 44 180 0.0 0.9 0.00 0.00 0.00 95 1023.2
20260506152913 43 180 0.0 0.9 0.00 0.00 0.00 95 1023.0
20260506151910 42 180 0.0 0.9 0.00 0.00 0.00 95 1023.0
20260506150911 41 180 0.0 0.0 0.00 0.01 0.00 95 1023.0
20260506145912 41 180 0.0 0.9 0.00 0.01 0.00 95 1022.8
20260506144011 39 180 0.0 0.0 0.00 0.03 0.00 95 1022.8
20260506143110 39 180 0.0 0.0 0.00 0.04 0.00 95 1022.8
20260506142109 39 180 0.0 0.0 0.00 0.05 0.00 95 1022.5
20260506141111 38 180 0.0 0.0 0.00 0.06 0.00 95 1022.4
20260506141011 38 180 0.0 0.0 0.00 0.06 0.00 95 1022.4
20260506135110 38 180 0.0 0.0 0.00 0.06 0.00 95 1022.2
20260506134126 38 180 0.0 0.0 0.00 0.06 0.00 95 1022.1
20260506133212 38 180 0.0 0.0 0.00 0.06 0.00 95 1022.1
20260506132211 38 180 0.0 0.0 0.00 0.07 0.00 95 1022.1
20260506125310 39 180 0.0 0.0 0.00 0.08 0.00 95 1021.8
20260506124311 39 180 0.0 0.0 0.00 0.09 0.00 95 1021.8
20260506123410 39 180 0.0 0.0 0.00 0.09 0.00 95 1021.8
20260506122412 39 180 0.0 0.0 0.00 0.09 0.00 95 1021.8
20260506121412 40 180 0.0 0.0 0.00 0.09 0.00 95 1021.8
20260506120411 40 180 0.0 0.0 0.00 0.09 0.00 95 1021.6
20260506115412 40 180 0.0 0.0 0.00 0.09 0.00 95 1021.6
20260506113511 40 180 0.0 0.0 0.00 0.09 0.00 95 1021.7
20260506112610 40 180 0.0 0.0 0.00 0.09 0.00 95 1021.5
20260506111613 40 180 0.0 0.0 0.00 0.09 0.00 95 1021.6
20260506110612 40 180 0.0 0.0 0.00 0.09 0.00 95 1021.5
20260506105710 40 180 0.0 0.0 0.00 0.09 0.00 95 1021.5
20260506104710 40 180 0.0 0.0 0.00 0.09 0.00 95 1021.4
20260506103712 40 180 0.0 0.0 0.00 0.09 0.00 95 1021.5
20260506102811 40 180 0.0 0.0 0.00 0.09 0.00 95 1021.2
20260506101812 40 180 0.0 0.0 0.00 0.09 0.00 95 1021.2
20260506100813 41 180 0.0 0.0 0.00 0.10 0.00 95 1020.9
20260506095813 41 180 0.0 0.0 0.00 0.10 0.00 95 1020.9
20260506094910 41 180 0.0 0.0 0.00 0.10 0.00 95 1020.8
20260506093911 41 180 0.0 0.0 0.00 0.10 0.00 95 1020.6
20260506092911 41 180 0.0 0.0 0.00 0.10 0.00 95 1020.7
20260506091912 41 180 0.0 0.0 0.00 0.11 0.00 95 1020.8
20260506090910 41 180 0.0 0.0 0.00 0.11 0.00 95 1020.9
20260506085911 41 180 0.0 0.0 0.00 0.11 0.00 95 1020.9
20260506084009 41 180 0.0 0.0 0.00 0.12 0.00 95 1020.9
20260506083011 41 180 0.0 0.0 0.00 0.12 0.00 95 1021.0
20260506081012 42 180 0.0 0.0 0.00 0.14 0.00 95 1020.9
20260506073113 42 180 0.0 0.0 0.00 0.16 0.00 95 1020.5
20260506072210 42 180 0.0 0.9 0.00 0.17 0.00 94 1020.5
20260506071212 42 135 0.0 0.0 0.00 0.18 0.00 94 1021.1